Marshalltown Municipal Airport
Saturday 9:53 PM
Temperature35° (48°/25°)
Dew Point27°
Feels Like30°
Relative Humidity72
%
Visibility10
mi
Pressure1020.3
mb
Wind DirectionNNE
30°
Wind Speed6
mph
Precipitation Today0.00"

Last 30 Observations

Time PresWx Temp DP Feels RH% Vsby Pressure Ceiling Direction Speed 1h Precip
8:53 PM 40° 26° 37°57
%
10
mi
1020.7
mb
NNE
20°
5
mph
0.00"
7:53 PM 41° 28° 37°60
%
10
mi
1020.3
mb
NNE
20°
6
mph
0.00"
6:53 PM 47° 27° 46°46
%
10
mi
1020.3
mb
NNE
20°
3
mph
0.00"
5:53 PM 48° 27° 45°44
%
10
mi
1020.3
mb
NE
50°
6
mph
0.00"
4:53 PM 47° 28° 43°48
%
10
mi
1020.3
mb
NE
50°
9
mph
0.00"
3:53 PM 46° 30° 41°53
%
10
mi
1021.0
mb
E
80°
9
mph
0.00"
2:53 PM 43° 31° 39°62
%
10
mi
1022.0
mb
NNE
30°
6
mph
0.00"
1:53 PM 40° 30° 34°67
%
10
mi
1023.0
mb
NE
40°
9
mph
0.00"
12:53 PM 37° 30° 30°76
%
10
mi
1023.7
mb
N
10°
9
mph
0.00"
12:17 PM 34° 30° 27°85
%
10
mi
1024.1
mb
N
10°
9
mph
0.00"
11:53 AM 33° 29° 27°85
%
10
mi
1024.4
mb
1,100
ft
N
350°
7
mph
0.00"
10:53 AM 28° 26° 19°92
%
9
mi
1024.7
mb
1,000
ft
NNW
340°
10
mph
0.00"
10:33 AM 30° 28° 21°92
%
10
mi
1024.7
mb
1,000
ft
N
350°
11
mph
0.00"
9:53 AM 27° 25° 17°92
%
10
mi
1024.4
mb
800
ft
N
360°
10
mph
0.00"
8:53 AM 26° 25° 16°96
%
10
mi
1024.4
mb
800
ft
NNW
340°
11
mph
0.00"
7:53 AM 25° 24° 13°96
%
10
mi
1024.1
mb
900
ft
N
350°
14
mph
0.00"
7:45 AM 26° 25° 16°96
%
10
mi
1024.1
mb
900
ft
N
10°
11
mph
0.00"
6:53 AM 26° 24° 16°92
%
10
mi
1024.1
mb
1,000
ft
N
360°
10
mph
0.00"
5:53 AM 26° 24° 15°92
%
10
mi
1023.7
mb
1,100
ft
NNW
330°
13
mph
0.00"
4:53 AM 26° 25° 96
%
10
mi
1023.7
mb
1,100
ft
0.00"
3:53 AM 27° 25° 15°92
%
10
mi
1023.7
mb
1,100
ft
N
350°
15
mph
0.00"
2:53 AM 26° 25° 13°96
%
10
mi
1023.4
mb
1,200
ft
NNW
330°
17
mph
0.00"
1:53 AM 26° 25° 14°96
%
10
mi
1023.4
mb
1,100
ft
NNW
340°
15
mph
0.00"
12:53 AM 26° 24° 13°92
%
10
mi
1022.7
mb
1,200
ft
NNW
330°
18
mph
0.00"
11:53 PM 27° 25° 92
%
10
mi
1023.0
mb
1,300
ft
0.00"
10:53 PM 27° 25° 14°92
%
10
mi
1023.0
mb
1,400
ft
NNW
330°
18
mph
0.00"
9:53 PM 28° 26° 16°92
%
10
mi
1022.7
mb
1,400
ft
NNW
330°
17
mph
0.00"
8:53 PM 28° 26° 16°92
%
10
mi
1022.4
mb
1,400
ft
NNW
330°
17
mph
0.00"
8:48 PM 28° 27° 93
%
10
mi
1022.4
mb
1,400
ft
0.00"
7:53 PM 28° 26° 17°92
%
10
mi
1021.7
mb
1,500
ft
NNW
330°
14
mph
0.00"